Le nostre stazioni meteo in Italia

Pubblicità
Il mio iltempo24.it
S. Valentino Alla Muta, Italia (16008): Temperatura & dewpoint: 15.04.2019 09:00:00 - 21.04.2019 09:00:00 (CEST)S. Valentino Alla Muta, Italia (16008): velocità del vento: 15.04.2019 09:00:00 - 21.04.2019 09:00:00 (CEST)S. Valentino Alla Muta, Italia (16008): direzione del vento: 15.04.2019 09:00:00 - 21.04.2019 09:00:00 (CEST)S. Valentino Alla Muta, Italia (16008): visibility: 15.04.2019 09:00:00 - 21.04.2019 09:00:00 (CEST)
Data & Tempo tt [°C] td [°C] ff [km/h] ff [kn] dd vv [km]
21.04.2019 09:00:00 - - - - - -
21.04.2019 08:00:00 3,8 -1,0 8 4 NNE 15
21.04.2019 07:00:00 3,6 -1,7 4 2 N 15
21.04.2019 06:00:00 4,0 -1,6 8 4 NNE 15
21.04.2019 05:00:00 4,8 -1,2 4 2 NNE 12
21.04.2019 04:00:00 4,8 -1,9 0 0 N 12
21.04.2019 03:00:00 4,8 -2,5 8 4 NNE 15
21.04.2019 02:00:00 5,2 -2,6 8 4 NNE 20
21.04.2019 01:00:00 5,8 -3,0 8 4 NNE 20
21.04.2019 00:00:00 6,2 -3,4 9 5 NNE 20
20.04.2019 23:00:00 6,8 -3,7 8 4 NNE 20
20.04.2019 22:00:00 7,4 -4,4 8 4 NE 20
20.04.2019 21:00:00 9,4 -4,5 5 3 NNE 20
20.04.2019 20:00:00 12,4 -6,6 8 4 NNE 20
20.04.2019 19:00:00 13,4 -10,4 5 3 E 20
20.04.2019 18:00:00 13,8 -10,1 9 5 SO 20
20.04.2019 17:00:00 14,0 -10,0 16 9 SSO 20
20.04.2019 16:00:00 13,0 -9,4 15 8 SSO 20
20.04.2019 15:00:00 12,8 -7,3 15 8 SSO 20
20.04.2019 14:00:00 12,4 -3,4 16 9 S 20
20.04.2019 13:00:00 12,0 -3,0 16 9 SSO 18
20.04.2019 12:00:00 11,0 -2,1 16 9 S 18
20.04.2019 11:00:00 7,8 -0,9 13 7 S 18
20.04.2019 10:00:00 7,0 -0,2 8 4 NNO 18
20.04.2019 09:00:00 3,0 -0,5 4 2 SSO 15
20.04.2019 08:00:00 0,8 -2,4 8 4 N 10
20.04.2019 07:00:00 1,0 -2,2 9 5 N 10
20.04.2019 06:00:00 1,0 -2,4 9 5 N 10
20.04.2019 05:00:00 1,0 -2,4 9 5 N 10
20.04.2019 04:00:00 - - - - - -
20.04.2019 03:00:00 2,2 -3,1 0 0 N 10
20.04.2019 02:00:00 2,2 -3,3 0 0 N 20
20.04.2019 01:00:00 3,6 -3,4 5 3 NNE 10
20.04.2019 00:00:00 3,8 -3,2 5 3 NNE 10
19.04.2019 23:00:00 4,8 -3,0 5 3 NNE 10
19.04.2019 22:00:00 5,4 -3,2 8 4 NE 20
19.04.2019 21:00:00 7,2 -4,5 4 2 NE 20
19.04.2019 20:00:00 9,2 -6,2 5 3 OSO 20
19.04.2019 19:00:00 10,2 -5,7 5 3 O 20
19.04.2019 18:00:00 11,8 -7,1 9 5 SSO 20
19.04.2019 17:00:00 11,0 -8,8 9 5 SSO 20
19.04.2019 16:00:00 11,8 -8,7 13 7 SSO 10
19.04.2019 15:00:00 12,0 -10,3 11 6 SSO 20
19.04.2019 14:00:00 11,8 -4,8 9 5 SSO 20
19.04.2019 13:00:00 11,2 -1,6 9 5 SSO 20
19.04.2019 12:00:00 9,4 -1,1 11 6 SSO 10
19.04.2019 11:00:00 8,6 -1,2 9 5 SSO 10
19.04.2019 10:00:00 6,0 3,2 9 5 SSO 20
19.04.2019 09:00:00 4,8 2,5 9 5 S 10
19.04.2019 08:00:00 4,0 2,2 5 3 SSO 20
19.04.2019 07:00:00 4,2 2,6 5 3 SO 10
19.04.2019 06:00:00 4,2 2,6 5 3 SO 10
19.04.2019 05:00:00 4,2 2,6 8 4 S 10
19.04.2019 04:00:00 - - - - - -
19.04.2019 03:00:00 - - - - - -
19.04.2019 02:00:00 4,8 2,3 5 3 SSE 10
19.04.2019 01:00:00 - - - - - -
19.04.2019 00:00:00 4,8 1,8 5 3 SSE 15
18.04.2019 23:00:00 4,8 1,7 13 7 SE 18
18.04.2019 22:00:00 5,4 1,7 9 5 SSE 18
18.04.2019 21:00:00 - - - - - -
18.04.2019 20:00:00 9,0 -1,7 11 6 S 30
18.04.2019 19:00:00 9,0 -2,0 11 6 S 30
18.04.2019 18:00:00 9,8 -1,9 15 8 SSO 30
18.04.2019 17:00:00 9,8 0,7 13 7 SSO 30
18.04.2019 16:00:00 10,0 0,1 13 7 S 30
18.04.2019 15:00:00 9,0 -0,6 15 8 SSO 30
18.04.2019 14:00:00 9,2 -1,0 16 9 SSO 30
18.04.2019 13:00:00 10,4 -1,0 13 7 SSO 30
18.04.2019 12:00:00 10,4 -0,4 9 5 SSO 30
18.04.2019 11:00:00 8,6 1,1 15 8 S 30
18.04.2019 10:00:00 7,2 2,1 9 5 SSO 20
18.04.2019 09:00:00 4,0 2,2 0 0 N 10
18.04.2019 08:00:00 1,0 -0,8 0 0 N 10
18.04.2019 07:00:00 - - - - - -
18.04.2019 06:00:00 - - - - - -
18.04.2019 05:00:00 1,6 -1,3 0 0 N 10
18.04.2019 04:00:00 2,0 -1,6 0 0 N 10
18.04.2019 03:00:00 2,4 -1,6 0 0 N 10
18.04.2019 02:00:00 2,8 -1,7 0 0 N 10
18.04.2019 01:00:00 4,0 -1,4 0 0 N 10
18.04.2019 00:00:00 4,8 -1,2 0 0 N 20
17.04.2019 23:00:00 5,4 -2,4 0 0 N 20
17.04.2019 22:00:00 6,2 -3,4 5 3 NNE 20
17.04.2019 21:00:00 9,2 -3,1 5 3 S 20
17.04.2019 20:00:00 9,0 -4,6 0 0 N 20
17.04.2019 19:00:00 10,0 -7,7 8 4 S 20
17.04.2019 18:00:00 12,0 -7,9 11 6 S 20
17.04.2019 17:00:00 11,8 -8,7 11 6 SSO 10
17.04.2019 16:00:00 12,8 -9,0 5 3 O 30
17.04.2019 15:00:00 14,0 7,1 5 3 O 20
17.04.2019 14:00:00 12,2 -7,8 9 5 S 20
17.04.2019 13:00:00 12,2 -8,3 8 4 S 10
17.04.2019 12:00:00 10,8 -4,8 9 5 OSO 30
17.04.2019 11:00:00 7,0 -3,3 9 5 NNO 30
17.04.2019 10:00:00 5,8 -1,6 5 3 N 10
17.04.2019 09:00:00 3,0 0,1 9 5 NNO 30
17.04.2019 08:00:00 0,8 -1,8 9 5 NNE 20
17.04.2019 07:00:00 1,4 -3,3 8 4 NNE 20
17.04.2019 06:00:00 2,0 -1,3 5 3 NNE 10
17.04.2019 05:00:00 2,2 -1,1 4 2 NNE 10
17.04.2019 04:00:00 - - - - - -
17.04.2019 03:00:00 2,0 -2,1 8 4 N 12
17.04.2019 02:00:00 2,2 -1,6 5 3 NNE 15
17.04.2019 01:00:00 2,2 -2,5 5 3 NNE 20
17.04.2019 00:00:00 3,0 -2,3 4 2 N 20
16.04.2019 23:00:00 4,4 -2,0 0 0 N 30
16.04.2019 22:00:00 5,2 -2,4 5 3 NNE 30
16.04.2019 21:00:00 6,0 -3,4 4 2 N 30
16.04.2019 20:00:00 7,2 -6,2 15 8 S 30
16.04.2019 19:00:00 7,4 -5,7 11 6 S 30
16.04.2019 18:00:00 7,8 -6,0 13 7 SSO 30
16.04.2019 17:00:00 9,0 -10,0 5 3 SO 30
16.04.2019 16:00:00 9,2 -8,8 5 3 SSO 30
16.04.2019 15:00:00 10,4 -7,8 13 7 SSO 30
16.04.2019 14:00:00 11,4 -9,0 11 6 SO 30
16.04.2019 13:00:00 11,2 -8,1 9 5 SO 20
16.04.2019 12:00:00 8,4 -6,9 9 5 SSO 30
16.04.2019 11:00:00 6,0 -3,9 5 3 OSO 20
16.04.2019 10:00:00 4,8 -2,5 5 3 O 10
16.04.2019 09:00:00 0,8 -1,4 0 0 N 10
16.04.2019 08:00:00 0,0 -2,1 0 0 N 10
16.04.2019 07:00:00 1,2 -0,9 5 3 NNE 10
16.04.2019 06:00:00 1,2 -0,9 5 3 NNE 10
16.04.2019 05:00:00 1,8 -0,8 5 3 NE 10
16.04.2019 04:00:00 - - - - - -
16.04.2019 03:00:00 - - - - - -
16.04.2019 02:00:00 3,2 -0,3 11 6 SE 10
16.04.2019 01:00:00 3,0 -1,6 9 5 SSE 10
16.04.2019 00:00:00 3,4 -0,4 0 0 N 10
15.04.2019 23:00:00 3,8 -1,0 0 0 N 10
15.04.2019 22:00:00 3,2 -2,7 0 0 N 10
15.04.2019 21:00:00 5,0 -2,1 0 0 N 10
15.04.2019 20:00:00 6,8 -4,3 5 3 SSE 10
15.04.2019 19:00:00 8,0 -4,8 5 3 S 10
15.04.2019 18:00:00 9,0 -9,0 9 5 S 10
15.04.2019 17:00:00 9,8 -7,4 8 4 SSO 10
15.04.2019 16:00:00 9,8 -8,3 9 5 OSO 10
15.04.2019 15:00:00 8,8 -7,8 8 4 SSO 10
15.04.2019 14:00:00 9,8 -9,8 9 5 S 10
15.04.2019 13:00:00 9,2 -5,1 5 3 O 30
15.04.2019 12:00:00 6,0 -4,5 11 6 N 30
15.04.2019 11:00:00 3,2 -3,2 13 7 NNE 30
15.04.2019 10:00:00 1,8 -3,7 15 8 NNE 20
15.04.2019 09:00:00 0,0 -4,6 13 7 NNE 20

tt = Temperatura
td = dewpoint
ff = velocità del vento
dd = direzione del vento
vv = visibility

Stazioni seguenti

WeatherPro
AMSI
MeteoEarth